Location: Marcé
(47.5801°N, 0.3280°W)
Time: 15:34:52
(UTC+01:00)

SR - Pass Details

Date: 03 December 2021
Orbit: 582 x 872 km, 66.7° (Epoch: 22 January)

Event Time Altitude Azimuth Distance (km) Brightness Sun altitude
Rises 03:09:58 0° 276° (W) 2,895 - -52.3°
Reaches altitude 10° 03:13:43 10° 308° (NW) 1,947 - -51.8°
Maximum altitude 03:15:24 12° 331° (NNW) 1,807 - -51.5°
Drops below altitude 10° 03:17:04 10° 354° (N) 1,923 - -51.3°
Sets 03:20:43 0° 26° (NNE) 2,815 - -50.7°
